<?xml version="1.0" encoding="utf-8"?>
<gpx xmlns:xsi="http://www.w3.org/2001/XMLSchema-instance" xmlns:xsd="http://www.w3.org/2001/XMLSchema" version="1.1" creator="Shapelink.com" xmlns="http://www.topografix.com/GPX/1/1" xmlns:gpxtpx="http://www.garmin.com/xmlschemas/TrackPointExtension/v1">
  <metadata>
    <name>Gåing 1.42 km, 2014-04-19</name>
    <desc></desc>
    <author><name>Alexander Engvall</name></author> 
    <time>1970-01-01T01:00:00Z</time>
  </metadata>
  <trk>
    <name>Gåing 1.42 km, 2014-04-19</name>
    <trkseg>
      <trkpt lat="62.81953" lon="14.440648">
        <ele>319</ele>
        <time>1970-01-01T01:00:00Z</time>
      </trkpt>
      <trkpt lat="62.819518" lon="14.440841">
        <ele>320.5</ele>
        <time>1970-01-01T01:00:00Z</time>
      </trkpt>
      <trkpt lat="62.819505" lon="14.441032">
        <ele>321.667</ele>
        <time>1970-01-01T01:00:00Z</time>
      </trkpt>
      <trkpt lat="62.819498" lon="14.441234">
        <ele>322.6</ele>
        <time>1970-01-01T01:00:00Z</time>
      </trkpt>
      <trkpt lat="62.819449" lon="14.441375">
        <ele>323.909</ele>
        <time>1970-01-01T01:00:00Z</time>
      </trkpt>
      <trkpt lat="62.819481" lon="14.441546">
        <ele>327.182</ele>
        <time>1970-01-01T01:00:00Z</time>
      </trkpt>
      <trkpt lat="62.81953" lon="14.441709">
        <ele>330.455</ele>
        <time>1970-01-01T01:00:00Z</time>
      </trkpt>
      <trkpt lat="62.819604" lon="14.441786">
        <ele>333.727</ele>
        <time>1970-01-01T01:00:00Z</time>
      </trkpt>
      <trkpt lat="62.819648" lon="14.441966">
        <ele>337</ele>
        <time>1970-01-01T01:00:00Z</time>
      </trkpt>
      <trkpt lat="62.819691" lon="14.442117">
        <ele>340.273</ele>
        <time>1970-01-01T01:00:00Z</time>
      </trkpt>
      <trkpt lat="62.81976" lon="14.442216">
        <ele>345</ele>
        <time>1970-01-01T01:00:00Z</time>
      </trkpt>
      <trkpt lat="62.819788" lon="14.442388">
        <ele>348.455</ele>
        <time>1970-01-01T01:00:00Z</time>
      </trkpt>
      <trkpt lat="62.819817" lon="14.442586">
        <ele>351.909</ele>
        <time>1970-01-01T01:00:00Z</time>
      </trkpt>
      <trkpt lat="62.819826" lon="14.442798">
        <ele>355.364</ele>
        <time>1970-01-01T01:00:00Z</time>
      </trkpt>
      <trkpt lat="62.819838" lon="14.442989">
        <ele>358.818</ele>
        <time>1970-01-01T01:00:00Z</time>
      </trkpt>
      <trkpt lat="62.819857" lon="14.443173">
        <ele>361.727</ele>
        <time>1970-01-01T01:00:00Z</time>
      </trkpt>
      <trkpt lat="62.819914" lon="14.443312">
        <ele>363.182</ele>
        <time>1970-01-01T01:00:00Z</time>
      </trkpt>
      <trkpt lat="62.819964" lon="14.443469">
        <ele>364.636</ele>
        <time>1970-01-01T01:00:00Z</time>
      </trkpt>
      <trkpt lat="62.820017" lon="14.443614">
        <ele>366.091</ele>
        <time>1970-01-01T01:00:00Z</time>
      </trkpt>
      <trkpt lat="62.820087" lon="14.443709">
        <ele>368.091</ele>
        <time>1970-01-01T01:00:00Z</time>
      </trkpt>
      <trkpt lat="62.820152" lon="14.443814">
        <ele>370.091</ele>
        <time>1970-01-01T01:00:00Z</time>
      </trkpt>
      <trkpt lat="62.820236" lon="14.443762">
        <ele>370.636</ele>
        <time>1970-01-01T01:00:00Z</time>
      </trkpt>
      <trkpt lat="62.820318" lon="14.4437">
        <ele>371.182</ele>
        <time>1970-01-01T01:00:00Z</time>
      </trkpt>
      <trkpt lat="62.820392" lon="14.443609">
        <ele>371.727</ele>
        <time>1970-01-01T01:00:00Z</time>
      </trkpt>
      <trkpt lat="62.820479" lon="14.443581">
        <ele>372.273</ele>
        <time>1970-01-01T01:00:00Z</time>
      </trkpt>
      <trkpt lat="62.820567" lon="14.443475">
        <ele>371.909</ele>
        <time>1970-01-01T01:00:00Z</time>
      </trkpt>
      <trkpt lat="62.820625" lon="14.443349">
        <ele>371.545</ele>
        <time>1970-01-01T01:00:00Z</time>
      </trkpt>
      <trkpt lat="62.820719" lon="14.443324">
        <ele>371.182</ele>
        <time>1970-01-01T01:00:00Z</time>
      </trkpt>
      <trkpt lat="62.820851" lon="14.443279">
        <ele>370.818</ele>
        <time>1970-01-01T01:00:00Z</time>
      </trkpt>
      <trkpt lat="62.820862" lon="14.443098">
        <ele>370.455</ele>
        <time>1970-01-01T01:00:00Z</time>
      </trkpt>
      <trkpt lat="62.820907" lon="14.442946">
        <ele>369.545</ele>
        <time>1970-01-01T01:00:00Z</time>
      </trkpt>
      <trkpt lat="62.82097" lon="14.442831">
        <ele>367.636</ele>
        <time>1970-01-01T01:00:00Z</time>
      </trkpt>
      <trkpt lat="62.821014" lon="14.442673">
        <ele>367.364</ele>
        <time>1970-01-01T01:00:00Z</time>
      </trkpt>
      <trkpt lat="62.821034" lon="14.442486">
        <ele>367.091</ele>
        <time>1970-01-01T01:00:00Z</time>
      </trkpt>
      <trkpt lat="62.821118" lon="14.442367">
        <ele>366.818</ele>
        <time>1970-01-01T01:00:00Z</time>
      </trkpt>
      <trkpt lat="62.821168" lon="14.442212">
        <ele>366.545</ele>
        <time>1970-01-01T01:00:00Z</time>
      </trkpt>
      <trkpt lat="62.821236" lon="14.442102">
        <ele>367.182</ele>
        <time>1970-01-01T01:00:00Z</time>
      </trkpt>
      <trkpt lat="62.821321" lon="14.442084">
        <ele>367.818</ele>
        <time>1970-01-01T01:00:00Z</time>
      </trkpt>
      <trkpt lat="62.821403" lon="14.442052">
        <ele>368.455</ele>
        <time>1970-01-01T01:00:00Z</time>
      </trkpt>
      <trkpt lat="62.821479" lon="14.441972">
        <ele>369.091</ele>
        <time>1970-01-01T01:00:00Z</time>
      </trkpt>
      <trkpt lat="62.821557" lon="14.441915">
        <ele>369.727</ele>
        <time>1970-01-01T01:00:00Z</time>
      </trkpt>
      <trkpt lat="62.821638" lon="14.441806">
        <ele>368.909</ele>
        <time>1970-01-01T01:00:00Z</time>
      </trkpt>
      <trkpt lat="62.821703" lon="14.441691">
        <ele>369.091</ele>
        <time>1970-01-01T01:00:00Z</time>
      </trkpt>
      <trkpt lat="62.821787" lon="14.441639">
        <ele>370</ele>
        <time>1970-01-01T01:00:00Z</time>
      </trkpt>
      <trkpt lat="62.821863" lon="14.441532">
        <ele>370.909</ele>
        <time>1970-01-01T01:00:00Z</time>
      </trkpt>
      <trkpt lat="62.821924" lon="14.441399">
        <ele>371.818</ele>
        <time>1970-01-01T01:00:00Z</time>
      </trkpt>
      <trkpt lat="62.822" lon="14.441299">
        <ele>372.727</ele>
        <time>1970-01-01T01:00:00Z</time>
      </trkpt>
      <trkpt lat="62.822073" lon="14.441214">
        <ele>373.636</ele>
        <time>1970-01-01T01:00:00Z</time>
      </trkpt>
      <trkpt lat="62.822154" lon="14.441174">
        <ele>374.545</ele>
        <time>1970-01-01T01:00:00Z</time>
      </trkpt>
      <trkpt lat="62.822235" lon="14.441102">
        <ele>375.455</ele>
        <time>1970-01-01T01:00:00Z</time>
      </trkpt>
      <trkpt lat="62.822295" lon="14.440968">
        <ele>376.364</ele>
        <time>1970-01-01T01:00:00Z</time>
      </trkpt>
      <trkpt lat="62.822376" lon="14.440946">
        <ele>377.273</ele>
        <time>1970-01-01T01:00:00Z</time>
      </trkpt>
      <trkpt lat="62.822457" lon="14.440905">
        <ele>379.636</ele>
        <time>1970-01-01T01:00:00Z</time>
      </trkpt>
      <trkpt lat="62.822533" lon="14.440844">
        <ele>385.091</ele>
        <time>1970-01-01T01:00:00Z</time>
      </trkpt>
      <trkpt lat="62.82262" lon="14.440795">
        <ele>388.182</ele>
        <time>1970-01-01T01:00:00Z</time>
      </trkpt>
      <trkpt lat="62.82271" lon="14.440728">
        <ele>390</ele>
        <time>1970-01-01T01:00:00Z</time>
      </trkpt>
      <trkpt lat="62.822781" lon="14.44062">
        <ele>391.818</ele>
        <time>1970-01-01T01:00:00Z</time>
      </trkpt>
      <trkpt lat="62.822859" lon="14.440547">
        <ele>393.636</ele>
        <time>1970-01-01T01:00:00Z</time>
      </trkpt>
      <trkpt lat="62.822941" lon="14.440564">
        <ele>395.455</ele>
        <time>1970-01-01T01:00:00Z</time>
      </trkpt>
      <trkpt lat="62.823016" lon="14.440493">
        <ele>397.273</ele>
        <time>1970-01-01T01:00:00Z</time>
      </trkpt>
      <trkpt lat="62.823101" lon="14.440415">
        <ele>399.091</ele>
        <time>1970-01-01T01:00:00Z</time>
      </trkpt>
      <trkpt lat="62.823177" lon="14.440348">
        <ele>400.909</ele>
        <time>1970-01-01T01:00:00Z</time>
      </trkpt>
      <trkpt lat="62.823263" lon="14.440373">
        <ele>402.727</ele>
        <time>1970-01-01T01:00:00Z</time>
      </trkpt>
      <trkpt lat="62.823354" lon="14.440319">
        <ele>404.545</ele>
        <time>1970-01-01T01:00:00Z</time>
      </trkpt>
      <trkpt lat="62.823432" lon="14.440194">
        <ele>402.909</ele>
        <time>1970-01-01T01:00:00Z</time>
      </trkpt>
      <trkpt lat="62.8235" lon="14.440089">
        <ele>401.273</ele>
        <time>1970-01-01T01:00:00Z</time>
      </trkpt>
      <trkpt lat="62.823548" lon="14.439942">
        <ele>403.182</ele>
        <time>1970-01-01T01:00:00Z</time>
      </trkpt>
      <trkpt lat="62.823579" lon="14.439777">
        <ele>405.091</ele>
        <time>1970-01-01T01:00:00Z</time>
      </trkpt>
      <trkpt lat="62.823641" lon="14.439632">
        <ele>407</ele>
        <time>1970-01-01T01:00:00Z</time>
      </trkpt>
      <trkpt lat="62.823671" lon="14.439459">
        <ele>408.909</ele>
        <time>1970-01-01T01:00:00Z</time>
      </trkpt>
      <trkpt lat="62.823741" lon="14.439325">
        <ele>410.818</ele>
        <time>1970-01-01T01:00:00Z</time>
      </trkpt>
      <trkpt lat="62.823803" lon="14.439196">
        <ele>412.727</ele>
        <time>1970-01-01T01:00:00Z</time>
      </trkpt>
      <trkpt lat="62.823852" lon="14.439044">
        <ele>414.636</ele>
        <time>1970-01-01T01:00:00Z</time>
      </trkpt>
      <trkpt lat="62.823902" lon="14.4389">
        <ele>416.545</ele>
        <time>1970-01-01T01:00:00Z</time>
      </trkpt>
      <trkpt lat="62.823933" lon="14.438734">
        <ele>417.636</ele>
        <time>1970-01-01T01:00:00Z</time>
      </trkpt>
      <trkpt lat="62.823933" lon="14.43854">
        <ele>419.091</ele>
        <time>1970-01-01T01:00:00Z</time>
      </trkpt>
      <trkpt lat="62.823961" lon="14.438373">
        <ele>420.545</ele>
        <time>1970-01-01T01:00:00Z</time>
      </trkpt>
      <trkpt lat="62.823989" lon="14.438194">
        <ele>419.727</ele>
        <time>1970-01-01T01:00:00Z</time>
      </trkpt>
      <trkpt lat="62.824046" lon="14.438034">
        <ele>418.909</ele>
        <time>1970-01-01T01:00:00Z</time>
      </trkpt>
      <trkpt lat="62.824093" lon="14.437883">
        <ele>417.909</ele>
        <time>1970-01-01T01:00:00Z</time>
      </trkpt>
      <trkpt lat="62.824135" lon="14.437728">
        <ele>416.909</ele>
        <time>1970-01-01T01:00:00Z</time>
      </trkpt>
      <trkpt lat="62.824143" lon="14.43755">
        <ele>415.909</ele>
        <time>1970-01-01T01:00:00Z</time>
      </trkpt>
      <trkpt lat="62.824211" lon="14.437427">
        <ele>414.909</ele>
        <time>1970-01-01T01:00:00Z</time>
      </trkpt>
      <trkpt lat="62.82424" lon="14.43726">
        <ele>413.909</ele>
        <time>1970-01-01T01:00:00Z</time>
      </trkpt>
      <trkpt lat="62.8243" lon="14.437131">
        <ele>412.909</ele>
        <time>1970-01-01T01:00:00Z</time>
      </trkpt>
      <trkpt lat="62.824342" lon="14.43698">
        <ele>412.818</ele>
        <time>1970-01-01T01:00:00Z</time>
      </trkpt>
      <trkpt lat="62.824401" lon="14.436812">
        <ele>412.727</ele>
        <time>1970-01-01T01:00:00Z</time>
      </trkpt>
      <trkpt lat="62.824481" lon="14.436789">
        <ele>412.636</ele>
        <time>1970-01-01T01:00:00Z</time>
      </trkpt>
      <trkpt lat="62.824538" lon="14.436655">
        <ele>416.364</ele>
        <time>1970-01-01T01:00:00Z</time>
      </trkpt>
      <trkpt lat="62.824527" lon="14.436477">
        <ele>420.091</ele>
        <time>1970-01-01T01:00:00Z</time>
      </trkpt>
      <trkpt lat="62.824566" lon="14.436314">
        <ele>424.818</ele>
        <time>1970-01-01T01:00:00Z</time>
      </trkpt>
      <trkpt lat="62.824605" lon="14.436152">
        <ele>429.545</ele>
        <time>1970-01-01T01:00:00Z</time>
      </trkpt>
      <trkpt lat="62.824624" lon="14.435929">
        <ele>434.273</ele>
        <time>1970-01-01T01:00:00Z</time>
      </trkpt>
      <trkpt lat="62.8247" lon="14.435857">
        <ele>439</ele>
        <time>1970-01-01T01:00:00Z</time>
      </trkpt>
      <trkpt lat="62.824693" lon="14.435668">
        <ele>443.727</ele>
        <time>1970-01-01T01:00:00Z</time>
      </trkpt>
      <trkpt lat="62.824701" lon="14.435477">
        <ele>448.455</ele>
        <time>1970-01-01T01:00:00Z</time>
      </trkpt>
      <trkpt lat="62.82473" lon="14.43531">
        <ele>453.091</ele>
        <time>1970-01-01T01:00:00Z</time>
      </trkpt>
      <trkpt lat="62.82479" lon="14.435163">
        <ele>457.909</ele>
        <time>1970-01-01T01:00:00Z</time>
      </trkpt>
      <trkpt lat="62.824823" lon="14.434999">
        <ele>462.727</ele>
        <time>1970-01-01T01:00:00Z</time>
      </trkpt>
      <trkpt lat="62.82489" lon="14.434893">
        <ele>463.727</ele>
        <time>1970-01-01T01:00:00Z</time>
      </trkpt>
      <trkpt lat="62.824968" lon="14.434839">
        <ele>464.727</ele>
        <time>1970-01-01T01:00:00Z</time>
      </trkpt>
      <trkpt lat="62.825031" lon="14.43471">
        <ele>464.909</ele>
        <time>1970-01-01T01:00:00Z</time>
      </trkpt>
      <trkpt lat="62.825109" lon="14.434626">
        <ele>465.091</ele>
        <time>1970-01-01T01:00:00Z</time>
      </trkpt>
      <trkpt lat="62.825183" lon="14.434548">
        <ele>469</ele>
        <time>1970-01-01T01:00:00Z</time>
      </trkpt>
      <trkpt lat="62.825265" lon="14.434528">
        <ele>472.909</ele>
        <time>1970-01-01T01:00:00Z</time>
      </trkpt>
      <trkpt lat="62.825326" lon="14.434386">
        <ele>476.818</ele>
        <time>1970-01-01T01:00:00Z</time>
      </trkpt>
      <trkpt lat="62.825334" lon="14.434209">
        <ele>480.727</ele>
        <time>1970-01-01T01:00:00Z</time>
      </trkpt>
      <trkpt lat="62.825397" lon="14.434048">
        <ele>484.636</ele>
        <time>1970-01-01T01:00:00Z</time>
      </trkpt>
      <trkpt lat="62.825474" lon="14.433924">
        <ele>488.364</ele>
        <time>1970-01-01T01:00:00Z</time>
      </trkpt>
      <trkpt lat="62.825495" lon="14.433753">
        <ele>492.091</ele>
        <time>1970-01-01T01:00:00Z</time>
      </trkpt>
      <trkpt lat="62.825567" lon="14.433647">
        <ele>495.818</ele>
        <time>1970-01-01T01:00:00Z</time>
      </trkpt>
      <trkpt lat="62.825629" lon="14.433526">
        <ele>499.091</ele>
        <time>1970-01-01T01:00:00Z</time>
      </trkpt>
      <trkpt lat="62.825683" lon="14.433377">
        <ele>502.364</ele>
        <time>1970-01-01T01:00:00Z</time>
      </trkpt>
      <trkpt lat="62.825741" lon="14.433223">
        <ele>505.636</ele>
        <time>1970-01-01T01:00:00Z</time>
      </trkpt>
      <trkpt lat="62.825833" lon="14.433149">
        <ele>505.182</ele>
        <time>1970-01-01T01:00:00Z</time>
      </trkpt>
      <trkpt lat="62.825904" lon="14.433064">
        <ele>504.727</ele>
        <time>1970-01-01T01:00:00Z</time>
      </trkpt>
      <trkpt lat="62.82595" lon="14.432904">
        <ele>507.182</ele>
        <time>1970-01-01T01:00:00Z</time>
      </trkpt>
      <trkpt lat="62.826021" lon="14.43278">
        <ele>509.636</ele>
        <time>1970-01-01T01:00:00Z</time>
      </trkpt>
      <trkpt lat="62.826062" lon="14.432627">
        <ele>512.091</ele>
        <time>1970-01-01T01:00:00Z</time>
      </trkpt>
      <trkpt lat="62.826143" lon="14.43261">
        <ele>514.545</ele>
        <time>1970-01-01T01:00:00Z</time>
      </trkpt>
      <trkpt lat="62.82623" lon="14.432611">
        <ele>517</ele>
        <time>1970-01-01T01:00:00Z</time>
      </trkpt>
      <trkpt lat="62.8263" lon="14.432479">
        <ele>519.455</ele>
        <time>1970-01-01T01:00:00Z</time>
      </trkpt>
      <trkpt lat="62.826378" lon="14.432386">
        <ele>522.364</ele>
        <time>1970-01-01T01:00:00Z</time>
      </trkpt>
      <trkpt lat="62.82646" lon="14.432407">
        <ele>525.273</ele>
        <time>1970-01-01T01:00:00Z</time>
      </trkpt>
      <trkpt lat="62.826549" lon="14.432425">
        <ele>528.182</ele>
        <time>1970-01-01T01:00:00Z</time>
      </trkpt>
      <trkpt lat="62.82664" lon="14.432379">
        <ele>531.091</ele>
        <time>1970-01-01T01:00:00Z</time>
      </trkpt>
      <trkpt lat="62.826727" lon="14.432347">
        <ele>534.909</ele>
        <time>1970-01-01T01:00:00Z</time>
      </trkpt>
      <trkpt lat="62.826799" lon="14.432244">
        <ele>535.818</ele>
        <time>1970-01-01T01:00:00Z</time>
      </trkpt>
      <trkpt lat="62.826894" lon="14.43221">
        <ele>536.727</ele>
        <time>1970-01-01T01:00:00Z</time>
      </trkpt>
      <trkpt lat="62.826976" lon="14.432221">
        <ele>537.636</ele>
        <time>1970-01-01T01:00:00Z</time>
      </trkpt>
      <trkpt lat="62.827058" lon="14.432262">
        <ele>538.273</ele>
        <time>1970-01-01T01:00:00Z</time>
      </trkpt>
      <trkpt lat="62.82714" lon="14.432318">
        <ele>538.909</ele>
        <time>1970-01-01T01:00:00Z</time>
      </trkpt>
      <trkpt lat="62.827225" lon="14.432383">
        <ele>539.545</ele>
        <time>1970-01-01T01:00:00Z</time>
      </trkpt>
      <trkpt lat="62.827315" lon="14.432357">
        <ele>540.182</ele>
        <time>1970-01-01T01:00:00Z</time>
      </trkpt>
      <trkpt lat="62.827395" lon="14.432249">
        <ele>540.818</ele>
        <time>1970-01-01T01:00:00Z</time>
      </trkpt>
      <trkpt lat="62.827442" lon="14.432081">
        <ele>541.455</ele>
        <time>1970-01-01T01:00:00Z</time>
      </trkpt>
      <trkpt lat="62.827487" lon="14.43192">
        <ele>542.091</ele>
        <time>1970-01-01T01:00:00Z</time>
      </trkpt>
      <trkpt lat="62.827544" lon="14.431773">
        <ele>542</ele>
        <time>1970-01-01T01:00:00Z</time>
      </trkpt>
      <trkpt lat="62.827633" lon="14.431749">
        <ele>541.909</ele>
        <time>1970-01-01T01:00:00Z</time>
      </trkpt>
      <trkpt lat="62.827716" lon="14.43171">
        <ele>541.818</ele>
        <time>1970-01-01T01:00:00Z</time>
      </trkpt>
      <trkpt lat="62.827796" lon="14.431662">
        <ele>541.727</ele>
        <time>1970-01-01T01:00:00Z</time>
      </trkpt>
      <trkpt lat="62.827869" lon="14.431582">
        <ele>541.909</ele>
        <time>1970-01-01T01:00:00Z</time>
      </trkpt>
      <trkpt lat="62.827945" lon="14.431515">
        <ele>541.545</ele>
        <time>1970-01-01T01:00:00Z</time>
      </trkpt>
      <trkpt lat="62.828041" lon="14.431498">
        <ele>541.6</ele>
        <time>1970-01-01T01:00:00Z</time>
      </trkpt>
      <trkpt lat="62.828116" lon="14.431567">
        <ele>541.667</ele>
        <time>1970-01-01T01:00:00Z</time>
      </trkpt>
      <trkpt lat="62.828196" lon="14.43153">
        <ele>541.75</ele>
        <time>1970-01-01T01:00:00Z</time>
      </trkpt>
      <trkpt lat="62.82826" lon="14.431395">
        <ele>541.857</ele>
        <time>1970-01-01T01:00:00Z</time>
      </trkpt>
      <trkpt lat="62.828341" lon="14.431375">
        <ele>542</ele>
        <time>1970-01-01T01:00:00Z</time>
      </trkpt>
    </trkseg>
  </trk>
</gpx>